Location: Brienzwiler
(46.7508°N, 8.1014°E)
Time: 08:06:13
(UTC+00:00)

Cosmos 1709 Rocket - Pass Details

Date: 05 July 2020
Orbit: 948 x 1001 km, 82.9° (Epoch: 05 August)

Event Time Altitude Azimuth Distance (km) Brightness Sun altitude
Exits shadow 20:24:13 - 173° (S) 3,358 6.3 -8.6°
Reaches altitude 10° 20:25:54 10° 171° (S) 2,731 5.8 -8.8°
Maximum altitude 20:32:04 60° 93° (E) 1,125 4.2 -9.5°
Drops below altitude 10° 20:38:19 10° 15° (NNE) 2,778 6.9 -10.2°
Sets 20:40:53 0° 12° (NNE) 3,735 7.6 -10.5°
